Location: Kelowna
(49.8880°N, 119.4960°W)
Time: 14:39:47
(UTC-07:00)

TIGRISAT - Visible Passes

Search period start: 24 April 2024 00:00
Search period end: 04 May 2024 00:00
Orbit: 594 x 674 km, 97.7° (Epoch: 23 April)

Date Brightness Start Highest point End Pass type
(mag) Time Alt. Az. Time Alt. Az. Time Alt. Az.
24 Apr ? 03:08:03 10° ENE 03:09:35 12° NE 03:11:05 10° NE visible
24 Apr ? 04:40:56 10° SSE 04:45:18 79° ENE 04:49:36 10° NNW visible
25 Apr ? 03:28:02 10° ESE 03:30:53 17° ENE 03:33:42 10° NNE visible
25 Apr ? 05:02:33 10° S 05:06:53 64° WSW 05:11:09 10° NNW visible
26 Apr ? 03:48:40 10° ESE 03:52:14 26° ENE 03:55:46 10° N visible
27 Apr ? 04:09:37 10° SE 04:13:39 39° ENE 04:17:38 10° N visible
28 Apr ? 04:30:51 10° SSE 04:35:06 63° ENE 04:39:19 10° N visible
29 Apr ? 03:18:27 10° E 03:20:44 14° ENE 03:23:01 10° NNE visible
29 Apr ? 04:52:18 10° S 04:56:36 80° WSW 05:00:53 10° NNW visible
30 Apr ? 03:38:47 10° ESE 03:42:01 21° ENE 03:45:13 10° NNE visible
01 May ? 03:59:32 10° SE 04:03:21 32° ENE 04:07:06 10° N visible
02 May ? 04:20:35 10° SE 04:24:43 50° ENE 04:28:48 10° N visible
03 May ? 03:08:53 10° ENE 03:10:24 12° NE 03:11:55 10° NE visible
03 May ? 04:41:52 10° SSE 04:46:08 82° ENE 04:50:22 10° NNW visible
